Weyers Cave, VA

10:57 AM EST on February 27, 2017 (GMT -0500)
Shenandoah Valley Regional

Weather History for KSHD - February, 2014

Change the Weather History Date:

Monday, February 24, 2014

  Actual Average Record
Temperature  
Mean Temperature 37 °F -  
Max Temperature 46 °F 48 °F 73 °F (2012)
Min Temperature 28 °F 28 °F -4 °F (2015)
Degree Days  
Heating Degree Days 28    
Moisture  
Dew Point 10 °F    
Average Humidity 35    
Maximum Humidity 70    
Minimum Humidity 13    
Precipitation  
Precipitation 0.00 in - - ()
Sea Level Pressure  
Sea Level Pressure 30.03 in    
Wind  
Wind Speed 5 mph (WNW)    
Max Wind Speed 21 mph    
Max Gust Speed 34 mph    
Visibility 10 miles    
Events      
Averages and records for this station are not official NWS values.
T = Trace of Precipitation, MM = Missing Value Source: NWS Daily Summary

Daily Weather History Graph

Daily Weather History Graph

Search for Another Location

Airport or City:

Trip Planner

Search our weather history database for the weather conditions in past years. The results will help you decide how hot, cold, wet, or windy it might be!

Date:

Astronomy

Feb. 24, 2014 Rise Set
Actual Time 6:54 AM EST 6:03 PM EST
Civil Twilight 6:27 AM EST 6:30 PM EST
Nautical Twilight 5:57 AM EST 7:01 PM EST
Astronomical Twilight 5:26 AM EST 7:31 PM EST
Moon 2:48 AM EST (2/24) 1:05 PM EST (2/24)
Length of Visible Light 12h 02m
Length of Day
11h 09m
Waning Crescent, 28% of the Moon is Illuminated
Feb 24
Waning Crescent
Mar 1
New
Mar 8
First Quarter
Mar 16
Full
Mar 23
Last Quarter

Hourly Weather History & Observations

Time (EST) Temp. Windchill Dew Point Humidity Pressure Visibility Wind Dir Wind Speed Gust Speed Precip Events Conditions
12:15 AM 41.9 °F - 32.0 °F 68% 29.95 in 10.0 mi Calm Calm - N/A   Overcast
12:35 AM 41.5 °F - 32.4 °F 70% 29.94 in 10.0 mi Calm Calm - N/A   Overcast
12:55 AM 41.7 °F - 32.4 °F 69% 29.94 in 10.0 mi Calm Calm - N/A   Overcast
1:15 AM 41.9 °F - 32.5 °F 69% 29.94 in 10.0 mi Calm Calm - N/A   Overcast
1:35 AM 43.7 °F - 32.0 °F 63% 29.94 in 10.0 mi Calm Calm - N/A   Overcast
1:55 AM 42.6 °F - 32.0 °F 66% 29.94 in 10.0 mi Calm Calm - N/A   Overcast
2:15 AM 43.0 °F - 31.8 °F 65% 29.94 in 10.0 mi Calm Calm - N/A   Overcast
2:35 AM 44.2 °F 41.0 °F 29.3 °F 56% 29.95 in 10.0 mi NNW 5.8 mph - N/A   Overcast
2:55 AM 42.6 °F 40.9 °F 28.4 °F 57% 29.94 in 10.0 mi NW 3.5 mph - N/A   Overcast
3:15 AM 40.5 °F 35.8 °F 28.0 °F 61% 29.94 in 10.0 mi NW 6.9 mph - N/A   Scattered Clouds
3:40 AM 40.8 °F 35.0 °F 25.9 °F 55% 29.94 in 10.0 mi NW 9.2 mph - N/A   Scattered Clouds
3:55 AM 40.5 °F 35.8 °F 24.3 °F 52% 29.95 in 10.0 mi NW 6.9 mph - N/A   Mostly Cloudy
4:15 AM 39.4 °F 37.2 °F 23.0 °F 52% 29.96 in 10.0 mi WNW 3.5 mph - N/A   Scattered Clouds
4:35 AM 36.9 °F 34.3 °F 22.5 °F 56% 29.97 in 10.0 mi NNW 3.5 mph - N/A   Clear
4:55 AM 37.8 °F 32.5 °F 19.0 °F 47% 29.97 in 10.0 mi North 6.9 mph - N/A   Clear
5:15 AM 37.6 °F - 17.1 °F 43% 29.98 in 10.0 mi Calm Calm - N/A   Clear
5:35 AM 35.4 °F - 17.4 °F 48% 29.98 in 10.0 mi Calm Calm - N/A   Clear
5:55 AM 34.0 °F 31.0 °F 17.4 °F 51% 29.99 in 10.0 mi WNW 3.5 mph - N/A   Clear
6:15 AM 32.4 °F - 18.5 °F 57% 29.99 in 10.0 mi Calm Calm - N/A   Clear
6:35 AM 33.8 °F - 14.5 °F 45% 29.99 in 10.0 mi Calm Calm - N/A   Clear
6:55 AM 32.2 °F - 14.4 °F 48% 30.00 in 10.0 mi Calm Calm - N/A   Clear
7:15 AM 31.8 °F - 14.9 °F 50% 30.00 in 10.0 mi Calm Calm - N/A   Clear
7:35 AM 32.2 °F - 16.5 °F 53% 30.01 in 10.0 mi Calm Calm - N/A   Clear
7:55 AM 33.3 °F - 18.1 °F 54% 30.02 in 10.0 mi Calm Calm - N/A   Clear
8:20 AM 35.8 °F 30.9 °F 14.5 °F 42% 30.03 in 10.0 mi West 5.8 mph - N/A   Clear
8:35 AM 36.5 °F 31.0 °F 11.8 °F 36% 30.04 in 10.0 mi West 6.9 mph - N/A   Clear
8:55 AM 37.2 °F 32.6 °F 10.9 °F 34% 30.03 in 10.0 mi West 5.8 mph - N/A   Clear
9:15 AM 37.8 °F 32.5 °F 9.1 °F 31% 30.04 in 10.0 mi West 6.9 mph - N/A   Clear
9:35 AM 38.7 °F 33.6 °F 6.6 °F 27% 30.05 in 10.0 mi West 6.9 mph - N/A   Clear
9:55 AM 39.9 °F - 5.2 °F 24% 30.05 in 10.0 mi Calm Calm - N/A   Clear
10:15 AM 40.8 °F 34.1 °F 5.0 °F 23% 30.04 in 10.0 mi WSW 11.5 mph 17.3 mph N/A   Clear
10:35 AM 41.7 °F 36.7 °F 4.8 °F 22% 30.04 in 10.0 mi West 8.1 mph - N/A   Clear
10:55 AM 43.2 °F 36.6 °F 3.2 °F 19% 30.05 in 10.0 mi West 12.7 mph 20.7 mph N/A   Clear
11:15 AM 43.2 °F 35.9 °F -0.6 °F 16% 30.03 in 10.0 mi WSW 15.0 mph - N/A   Clear
11:35 AM 43.7 °F 37.7 °F -0.9 °F 16% 30.03 in 10.0 mi WNW 11.5 mph 17.3 mph N/A   Clear
11:55 AM 44.4 °F 38.2 °F -2.2 °F 14% 30.03 in 10.0 mi WNW 12.7 mph 19.6 mph N/A   Clear
12:15 PM 45.0 °F 38.9 °F -1.5 °F 14% 30.02 in 10.0 mi West 12.7 mph 19.6 mph N/A   Clear
12:35 PM 45.7 °F 40.2 °F -1.3 °F 14% 30.01 in 10.0 mi WNW 11.5 mph 23.0 mph N/A   Clear
1:00 PM 45.3 °F 39.7 °F -3.1 °F 13% 30.00 in 10.0 mi West 11.5 mph 20.7 mph N/A   Clear
1:15 PM 45.5 °F 38.9 °F -2.9 °F 13% 30.00 in 10.0 mi West 15.0 mph 23.0 mph N/A   Clear
1:35 PM 45.7 °F 38.6 °F -2.6 °F 13% 30.00 in 10.0 mi WNW 17.3 mph 27.6 mph N/A   Clear
1:55 PM 45.5 °F 38.3 °F -2.7 °F 13% 30.00 in 10.0 mi WNW 17.3 mph 24.2 mph N/A   Clear
2:15 PM 46.0 °F 39.3 °F -0.4 °F 15% 30.01 in 10.0 mi West 16.1 mph 23.0 mph N/A   Clear
2:35 PM 45.7 °F 37.8 °F -0.9 °F 14% 30.01 in 10.0 mi WNW 20.7 mph 28.8 mph N/A   Clear
2:55 PM 44.6 °F 36.4 °F -0.4 °F 15% 30.02 in 10.0 mi WNW 20.7 mph 34.5 mph N/A   Clear
3:15 PM 44.1 °F 35.9 °F -1.1 °F 15% 30.02 in 10.0 mi WNW 19.6 mph 33.4 mph N/A   Clear
3:35 PM 43.9 °F 35.9 °F -1.5 °F 15% 30.03 in 10.0 mi NW 18.4 mph 28.8 mph N/A   Clear
3:55 PM 43.3 °F 35.8 °F -0.8 °F 16% 30.04 in 10.0 mi NW 16.1 mph 24.2 mph N/A   Clear
4:15 PM 42.1 °F 33.1 °F -4.9 °F 14% 30.04 in 10.0 mi West 20.7 mph 29.9 mph N/A   Clear
4:35 PM 41.5 °F 32.6 °F -3.8 °F 15% 30.05 in 10.0 mi WNW 19.6 mph 27.6 mph N/A   Clear
4:55 PM 41.0 °F 33.5 °F -3.5 °F 15% 30.06 in 10.0 mi WNW 13.8 mph 23.0 mph N/A   Clear
5:15 PM 40.1 °F 33.6 °F 0.5 °F 19% 30.07 in 10.0 mi WNW 10.4 mph 17.3 mph N/A   Clear
5:40 PM 38.3 °F 31.9 °F 1.9 °F 22% 30.08 in 10.0 mi NW 9.2 mph - N/A   Clear
5:55 PM 37.0 °F 28.9 °F 1.6 °F 23% 30.08 in 10.0 mi WNW 12.7 mph 19.6 mph N/A   Clear
6:15 PM 35.8 °F 28.8 °F 1.8 °F 24% 30.09 in 10.0 mi NW 9.2 mph 20.7 mph N/A   Clear
6:35 PM 34.9 °F 29.9 °F 2.7 °F 26% 30.11 in 10.0 mi WNW 5.8 mph - N/A   Clear
6:55 PM 33.6 °F 29.4 °F 4.1 °F 29% 30.11 in 10.0 mi NW 4.6 mph - N/A   Clear
7:15 PM 34.0 °F 26.0 °F 2.3 °F 26% 30.11 in 10.0 mi WNW 10.4 mph - N/A   Clear
7:35 PM 33.6 °F 26.8 °F 3.2 °F 28% 30.12 in 10.0 mi WNW 8.1 mph - N/A   Clear
7:55 PM 33.3 °F 30.2 °F 2.3 °F 27% 30.12 in 10.0 mi West 3.5 mph - N/A   Clear
8:15 PM 32.0 °F - 3.2 °F 30% 30.12 in 10.0 mi Calm Calm - N/A   Clear
8:35 PM 32.0 °F - 2.7 °F 29% 30.13 in 10.0 mi Calm Calm - N/A   Clear
8:55 PM 32.0 °F - 3.7 °F 30% 30.13 in 10.0 mi Calm Calm - N/A   Clear
9:15 PM 29.8 °F 26.3 °F 5.2 °F 35% 30.12 in 10.0 mi West 3.5 mph - N/A   Clear
9:35 PM 32.0 °F 27.5 °F 4.6 °F 32% 30.12 in 10.0 mi West 4.6 mph - N/A   Clear
9:55 PM 32.0 °F 25.6 °F 4.5 °F 31% 30.12 in 10.0 mi West 6.9 mph - N/A   Clear
10:15 PM 32.0 °F 26.4 °F 4.6 °F 32% 30.11 in 10.0 mi West 5.8 mph - N/A   Clear
10:35 PM 31.3 °F 27.9 °F 5.4 °F 34% 30.12 in 10.0 mi West 3.5 mph - N/A   Clear
10:55 PM 30.4 °F - 5.9 °F 36% 30.12 in 10.0 mi Calm Calm - N/A   Clear
11:15 PM 28.4 °F - 7.7 °F 42% 30.12 in 10.0 mi Calm Calm - N/A   Clear
11:35 PM 28.9 °F - 7.0 °F 40% 30.11 in 10.0 mi Calm Calm - N/A   Clear
11:55 PM 28.4 °F - 7.2 °F 41% 30.11 in 10.0 mi Calm Calm - N/A   Scattered Clouds